�N����,����,�~����,�C��,���x,�C��,����,���ϕ���,�ő�u�ԕ���,�ő厞����,���˗�,�I�_���x,�n�����x,�ő啗���N��,DTYPE
"21/07/21","00:10",0.0,23.9,87.2,1009.7,290.4,0.6,1.0,330.2,0.00,21.7,26.9,"00:02:00",1
"21/07/21","00:20",0.0,23.5,87.3,1009.5,307.5,0.7,1.1,316.1,0.00,21.3,26.7,"00:13:28",1
"21/07/21","00:30",0.0,23.6,87.7,1009.7,317.5,1.1,1.4,318.5,0.00,21.5,26.8,"00:22:24",1
"21/07/21","00:40",0.0,23.8,87.9,1009.3,331.6,1.1,1.3,339.0,0.00,21.7,26.7,"00:31:20",1
"21/07/21","00:50",0.0,23.6,88.1,1009.3,295.2,0.7,1.2,322.9,0.00,21.6,26.7,"00:46:56",1
"21/07/21","01:00",0.0,23.6,88.4,1009.5,318.9,0.8,1.3,324.4,0.00,21.6,26.7,"00:53:12",1
"21/07/21","01:10",0.0,23.5,88.5,1009.5,330.6,1.0,1.4,325.7,0.00,21.5,26.6,"01:07:20",1
"21/07/21","01:20",0.0,23.4,88.8,1009.5,327.5,1.0,1.2,332.4,0.00,21.5,26.7,"01:17:20",1
"21/07/21","01:30",0.0,23.3,89.0,1009.5,322.0,1.0,1.2,316.6,0.00,21.4,26.5,"01:24:56",1
"21/07/21","01:40",0.0,23.3,89.2,1009.7,301.4,0.8,1.2,315.6,0.00,21.5,26.5,"01:36:32",1
"21/07/21","01:50",0.0,23.4,89.3,1009.7,301.8,0.7,1.2,314.6,0.00,21.6,26.4,"01:41:20",1
"21/07/21","02:00",0.0,23.3,89.5,1009.7,304.6,1.0,1.6,328.2,0.00,21.5,26.5,"01:58:40",1
"21/07/21","02:10",0.0,23.4,89.6,1009.7,315.9,1.0,1.6,314.3,0.00,21.6,26.4,"02:00:08",1
"21/07/21","02:20",0.0,23.4,89.6,1009.5,318.6,1.0,1.4,327.9,0.00,21.6,26.4,"02:10:40",1
"21/07/21","02:30",0.0,23.3,89.8,1009.3,321.2,0.8,1.4,304.4,0.00,21.6,26.3,"02:29:52",1
"21/07/21","02:40",0.0,23.1,89.9,1009.5,301.1,0.6,1.1,275.2,0.00,21.4,26.4,"02:30:32",1
"21/07/21","02:50",0.0,23.0,90.1,1009.5,317.0,1.0,1.7,311.8,0.00,21.3,26.3,"02:43:44",1
"21/07/21","03:00",0.0,23.0,90.2,1009.3,319.1,1.0,1.4,320.7,0.00,21.3,26.3,"02:57:04",1
"21/07/21","03:10",0.0,22.9,90.3,1009.3,314.0,0.8,1.2,326.6,0.00,21.3,26.2,"03:04:56",1
"21/07/21","03:20",0.0,22.9,90.5,1009.7,287.1,1.0,1.7,309.6,0.00,21.3,26.1,"03:12:40",1
"21/07/21","03:30",0.0,23.0,90.6,1009.5,313.6,1.1,1.4,328.4,0.00,21.4,26.1,"03:22:16",1
"21/07/21","03:40",0.0,23.0,90.5,1009.7,315.1,1.0,1.4,293.9,0.00,21.4,26.2,"03:30:24",1
"21/07/21","03:50",0.0,22.9,90.6,1009.5,330.2,1.0,1.4,316.9,0.00,21.3,26.2,"03:47:28",1
"21/07/21","04:00",0.0,22.8,90.6,1009.7,301.4,0.6,1.1,331.1,0.00,21.2,25.9,"03:51:04",1
"21/07/21","04:10",0.0,22.6,90.7,1009.0,286.7,0.7,1.4,287.2,0.00,21.0,26.0,"04:08:40",1
"21/07/21","04:20",0.0,22.7,90.8,1009.5,300.1,0.8,1.2,267.4,0.00,21.2,26.0,"04:10:16",1
"21/07/21","04:30",0.0,22.7,90.8,1009.7,306.2,1.0,1.2,290.8,0.00,21.2,25.9,"04:21:36",1
"21/07/21","04:40",0.0,22.6,90.9,1009.7,318.5,1.0,1.9,321.9,0.00,21.1,25.9,"04:34:40",1
"21/07/21","04:50",0.0,22.6,90.9,1009.5,331.7,1.1,1.7,336.8,0.00,21.1,25.8,"04:44:40",1
"21/07/21","05:00",0.0,22.4,90.9,1009.7,317.4,1.0,1.2,327.6,0.00,20.9,26.0,"04:50:08",1
"21/07/21","05:10",0.0,22.5,91.1,1009.7,302.8,1.1,1.9,267.6,0.00,21.0,25.9,"05:06:16",1
"21/07/21","05:20",0.0,22.6,91.1,1009.7,333.1,1.0,1.6,345.5,0.00,21.1,25.7,"05:18:48",1
"21/07/21","05:30",0.0,22.5,91.1,1010.0,328.9,1.1,1.6,332.6,0.00,21.0,25.8,"05:22:40",1
"21/07/21","05:40",0.0,22.3,91.2,1010.0,319.7,1.0,1.2,309.4,0.00,20.8,25.8,"05:30:24",1
"21/07/21","05:50",0.0,22.2,91.3,1010.0,322.7,1.1,1.6,325.9,0.00,20.8,25.7,"05:44:16",1
"21/07/21","06:00",0.0,22.4,91.3,1009.7,320.5,0.7,1.2,321.4,0.00,21.0,25.7,"05:50:08",1
"21/07/21","06:10",0.0,22.5,91.3,1009.7,323.8,0.8,1.2,325.7,0.00,21.1,25.9,"06:08:40",1
"21/07/21","06:20",0.0,22.9,91.4,1009.7,336.6,1.0,1.8,339.6,0.02,21.5,25.6,"06:14:00",1
"21/07/21","06:30",0.0,23.7,91.3,1010.0,347.7,0.8,1.2,334.9,0.03,22.2,25.7,"06:25:44",1
"21/07/21","06:40",0.0,24.3,91.1,1009.7,345.8,0.7,1.4,344.2,0.04,22.8,25.7,"06:35:20",1
"21/07/21","06:50",0.0,25.1,90.1,1009.7,306.4,0.3,1.1,338.1,0.06,23.4,25.6,"06:42:00",1
"21/07/21","07:00",0.0,25.9,89.9,1009.5,128.5,0.2,0.8,128.4,0.08,24.2,25.5,"06:57:44",1
"21/07/21","07:10",0.0,26.3,88.5,1009.7,183.3,0.2,0.6,125.8,0.10,24.3,25.5,"07:03:04",1
"21/07/21","07:20",0.0,26.9,87.3,1009.5,287.5,0.2,1.1,20.6,0.13,24.6,25.7,"07:16:56",1
"21/07/21","07:30",0.0,27.5,84.3,1009.0,14.7,0.3,0.9,48.3,0.15,24.7,25.4,"07:23:12",1
"21/07/21","07:40",0.0,27.8,79.4,1008.8,345.6,0.8,1.6,341.6,0.17,23.9,25.6,"07:36:48",1
"21/07/21","07:50",0.0,28.1,75.5,1009.0,336.1,0.6,1.7,347.7,0.20,23.4,25.6,"07:46:24",1
"21/07/21","08:00",0.0,28.6,73.7,1009.0,330.2,0.6,1.6,349.4,0.22,23.5,25.5,"07:53:20",1
"21/07/21","08:10",0.0,29.4,69.7,1009.3,68.8,0.6,1.9,40.2,0.25,23.3,25.7,"08:03:44",1
"21/07/21","08:20",0.0,30.0,65.1,1009.7,102.0,1.0,2.6,107.4,0.28,22.8,25.6,"08:15:12",1
"21/07/21","08:30",0.0,30.1,64.3,1009.7,125.5,1.1,2.6,128.8,0.30,22.7,25.7,"08:25:52",1
"21/07/21","08:40",0.0,30.1,64.7,1009.7,129.9,1.2,2.6,138.3,0.32,22.8,25.6,"08:30:24",1
"21/07/21","08:50",0.0,30.7,63.2,1009.7,129.8,1.1,2.4,130.5,0.35,22.9,25.6,"08:43:44",1
"21/07/21","09:00",0.0,30.9,63.0,1010.0,126.3,1.2,2.7,118.8,0.36,23.1,25.7,"08:56:56",1
"21/07/21","09:10",0.0,31.2,61.4,1010.0,112.5,1.0,2.7,144.5,0.39,22.9,25.6,"09:00:02",1
"21/07/21","09:20",0.0,31.3,62.0,1010.0,120.0,1.3,2.6,133.4,0.41,23.2,25.8,"09:13:20",1
"21/07/21","09:30",0.0,31.5,61.7,1010.2,116.8,1.3,2.9,111.3,0.43,23.3,26.0,"09:24:08",1
"21/07/21","09:40",0.0,31.7,61.9,1010.2,113.5,1.3,3.5,149.9,0.44,23.5,25.7,"09:37:28",1
"21/07/21","09:50",0.0,31.6,62.3,1010.2,120.9,1.3,3.1,149.2,0.46,23.5,25.9,"09:43:20",1
"21/07/21","10:00",0.0,32.1,60.9,1010.2,114.3,1.2,2.8,56.1,0.48,23.6,26.0,"09:53:36",1
"21/07/21","10:10",0.0,31.8,61.0,1010.0,120.9,1.5,3.1,141.8,0.49,23.4,26.1,"10:00:32",1
"21/07/21","10:20",0.0,32.4,60.2,1010.2,108.5,1.2,2.8,127.7,0.51,23.7,26.2,"10:18:56",1
"21/07/21","10:30",0.0,32.2,60.6,1009.7,136.1,1.6,3.5,145.0,0.52,23.7,26.3,"10:22:40",1
"21/07/21","10:40",0.0,32.5,58.1,1010.0,78.1,1.3,2.7,124.4,0.54,23.2,26.3,"10:32:16",1
"21/07/21","10:50",0.0,32.9,58.1,1010.0,112.3,1.1,2.8,161.1,0.55,23.6,26.3,"10:41:12",1
"21/07/21","11:00",0.0,33.4,56.3,1010.2,79.9,1.0,2.8,348.5,0.56,23.6,26.2,"10:57:52",1
"21/07/21","11:10",0.0,33.6,57.0,1010.2,107.5,1.2,3.2,77.4,0.56,23.9,26.4,"11:01:44",1
"21/07/21","11:20",0.0,33.2,55.8,1010.0,68.7,1.3,3.2,18.4,0.51,23.2,26.6,"11:10:32",1
"21/07/21","11:30",0.0,33.1,57.5,1009.5,87.0,1.2,2.6,43.3,0.45,23.6,26.8,"11:26:48",1
"21/07/21","11:40",0.0,33.4,55.4,1009.5,107.6,1.6,3.7,188.7,0.61,23.3,26.6,"11:38:56",1
"21/07/21","11:50",0.0,33.7,56.9,1009.7,109.2,1.1,2.7,201.1,0.55,24.0,26.7,"11:40:08",1
"21/07/21","12:00",0.0,34.0,56.3,1009.7,97.6,1.2,4.0,148.2,0.61,24.1,27.1,"11:54:56",1
"21/07/21","12:10",0.0,33.8,55.3,1009.7,100.0,1.2,3.5,161.6,0.45,23.6,27.0,"12:02:24",1
"21/07/21","12:20",0.0,33.7,54.3,1009.7,103.6,1.5,3.2,66.2,0.54,23.2,27.2,"12:12:16",1
"21/07/21","12:30",0.0,34.2,54.9,1009.5,83.1,1.1,2.8,62.6,0.61,23.9,27.1,"12:24:40",1
"21/07/21","12:40",0.0,34.6,55.8,1009.5,106.5,1.2,4.3,44.9,0.63,24.5,27.1,"12:31:44",1
"21/07/21","12:50",0.0,34.6,51.6,1009.5,89.8,1.2,4.3,108.2,0.59,23.2,27.2,"12:46:40",1
"21/07/21","13:00",0.0,34.7,50.9,1009.5,88.5,1.2,3.4,59.2,0.59,23.1,27.3,"12:58:08",1
"21/07/21","13:10",0.0,34.9,51.7,1009.5,118.8,1.2,3.6,81.7,0.59,23.5,27.3,"13:02:40",1
"21/07/21","13:20",0.0,34.7,48.3,1009.5,98.6,1.0,2.6,76.9,0.58,22.2,27.3,"13:19:04",1
"21/07/21","13:30",0.0,34.7,48.8,1009.3,104.0,1.3,3.1,50.2,0.57,22.4,27.5,"13:21:52",1
"21/07/21","13:40",0.0,35.1,49.5,1009.0,68.9,1.3,2.9,120.5,0.56,23.0,27.5,"13:34:40",1
"21/07/21","13:50",0.0,34.8,49.8,1009.0,117.4,1.6,4.5,133.1,0.55,22.8,27.4,"13:46:08",1
"21/07/21","14:00",0.0,35.1,46.0,1009.3,97.5,1.1,2.7,93.6,0.54,21.8,27.7,"13:51:52",1
"21/07/21","14:10",0.0,35.3,44.7,1009.0,69.0,1.1,2.9,9.0,0.53,21.5,27.8,"14:08:00",1
"21/07/21","14:20",0.0,35.3,45.6,1008.8,95.0,1.2,3.3,162.4,0.52,21.8,27.8,"14:19:20",1
"21/07/21","14:30",0.0,35.5,45.6,1008.6,87.3,1.2,3.3,100.9,0.51,22.0,27.8,"14:23:28",1
"21/07/21","14:40",0.0,35.5,46.2,1008.6,108.1,1.2,3.6,139.4,0.49,22.2,28.0,"14:34:16",1
"21/07/21","14:50",0.0,35.5,45.1,1008.6,49.1,1.2,3.3,45.0,0.47,21.8,27.9,"14:46:24",1
"21/07/21","15:00",0.0,35.4,45.3,1008.6,121.4,1.1,3.7,112.8,0.46,21.8,28.1,"14:53:44",1
"21/07/21","15:10",0.0,35.4,43.7,1008.6,69.6,1.3,2.7,39.9,0.44,21.2,28.1,"15:01:04",1
"21/07/21","15:20",0.0,35.6,40.2,1008.6,61.1,1.1,3.1,30.5,0.43,20.0,28.1,"15:19:52",1
"21/07/21","15:30",0.0,35.6,39.8,1008.1,84.3,1.1,2.4,89.5,0.41,19.9,28.1,"15:29:36",1
"21/07/21","15:40",0.0,35.3,39.7,1007.8,71.1,1.6,4.2,27.2,0.39,19.6,28.3,"15:30:08",1
"21/07/21","15:50",0.0,35.3,40.0,1007.8,49.8,1.3,4.1,44.2,0.37,19.7,28.3,"15:43:52",1
"21/07/21","16:00",0.0,35.3,38.7,1007.4,108.4,1.0,3.4,67.1,0.35,19.2,28.3,"15:50:02",1
"21/07/21","16:10",0.0,35.3,39.0,1007.6,78.7,1.3,3.5,26.6,0.33,19.3,28.2,"16:00:56",1
"21/07/21","16:20",0.0,35.3,39.1,1007.4,97.5,1.1,2.4,112.1,0.31,19.3,28.4,"16:19:12",1
"21/07/21","16:30",0.0,34.9,39.6,1007.8,97.5,1.3,4.4,133.8,0.28,19.2,28.4,"16:27:36",1
"21/07/21","16:40",0.0,34.8,35.8,1007.6,92.0,1.1,2.4,56.6,0.26,17.5,28.5,"16:32:32",1
"21/07/21","16:50",0.0,34.8,35.6,1007.1,89.0,1.3,2.8,98.9,0.24,17.4,28.4,"16:44:56",1
"21/07/21","17:00",0.0,34.6,37.3,1007.4,101.4,1.3,3.1,105.4,0.21,18.0,28.4,"16:59:12",1
"21/07/21","17:10",0.0,34.4,34.8,1007.1,98.3,1.3,2.9,98.9,0.19,16.7,28.4,"17:01:28",1
"21/07/21","17:20",0.0,34.4,35.9,1007.1,101.4,1.1,2.5,112.5,0.16,17.2,28.4,"17:14:00",1
"21/07/21","17:30",0.0,34.3,34.9,1007.4,81.3,1.0,2.2,104.6,0.07,16.6,28.5,"17:24:32",1
"21/07/21","17:40",0.0,34.1,35.4,1006.9,44.6,1.3,2.9,47.5,0.00,16.7,28.4,"17:39:36",1
"21/07/21","17:50",0.0,33.8,36.9,1006.9,48.1,1.2,2.7,56.3,0.00,17.1,28.4,"17:43:04",1
"21/07/21","18:00",0.0,32.9,37.0,1006.9,46.0,1.1,2.6,26.9,0.00,16.3,28.5,"17:58:16",1
"21/07/21","18:10",0.0,32.9,39.7,1006.7,80.2,1.1,2.8,61.6,0.00,17.4,28.2,"18:07:20",1
"21/07/21","18:20",0.0,32.9,40.7,1006.7,56.7,0.7,1.9,52.0,0.00,17.8,28.3,"18:12:00",1
"21/07/21","18:30",0.0,32.6,42.2,1006.7,57.0,0.8,1.9,81.0,0.00,18.1,28.3,"18:20:08",1
"21/07/21","18:40",0.0,32.0,45.0,1006.7,53.2,0.8,2.1,47.9,0.00,18.6,28.2,"18:36:16",1
"21/07/21","18:50",0.0,31.2,47.0,1006.2,52.9,0.6,1.6,72.3,0.00,18.6,28.2,"18:48:00",1
"21/07/21","19:00",0.0,30.8,48.8,1006.2,30.2,0.7,1.7,53.4,0.00,18.8,28.1,"18:52:56",1
"21/07/21","19:10",0.0,30.2,49.4,1006.0,16.8,0.8,1.6,6.5,0.00,18.5,28.3,"19:04:08",1
"21/07/21","19:20",0.0,29.7,52.2,1005.7,284.3,0.6,1.1,48.6,0.00,18.9,28.1,"19:10:16",1
"21/07/21","19:30",0.0,28.9,55.5,1005.7,1.8,0.7,2.0,344.3,0.00,19.1,28.1,"19:23:52",1
"21/07/21","19:40",0.0,28.6,59.2,1005.2,6.9,0.8,2.4,358.9,0.00,19.9,28.1,"19:34:48",1
"21/07/21","19:50",0.0,27.5,62.1,1006.4,315.4,0.6,1.2,313.5,0.00,19.6,28.1,"19:42:40",1
"21/07/21","20:00",0.0,26.9,63.5,1006.4,306.0,0.7,1.6,324.6,0.00,19.4,27.9,"19:58:32",1
"21/07/21","20:10",0.0,26.6,64.9,1006.9,307.5,0.5,1.3,345.7,0.00,19.5,28.0,"20:02:48",1
"21/07/21","20:20",0.0,26.2,66.0,1007.1,344.7,1.1,2.0,348.6,0.00,19.4,27.9,"20:15:36",1
"21/07/21","20:30",0.0,26.0,66.5,1007.8,294.4,0.7,2.2,350.0,0.00,19.3,27.9,"20:24:56",1
"21/07/21","20:40",0.0,25.8,66.8,1007.6,303.7,0.7,1.4,308.0,0.00,19.2,27.7,"20:38:16",1
"21/07/21","20:50",0.0,25.7,67.7,1007.6,282.2,0.6,1.2,253.2,0.00,19.3,27.9,"20:49:44",1
"21/07/21","21:00",0.0,25.7,68.1,1007.8,304.2,0.8,2.0,252.9,0.00,19.4,27.7,"20:53:28",1
"21/07/21","21:10",0.0,25.7,68.1,1008.1,299.2,0.7,1.4,255.7,0.00,19.4,27.7,"21:04:00",1
"21/07/21","21:20",0.0,25.9,67.7,1007.8,297.6,1.0,2.4,266.5,0.00,19.5,27.5,"21:15:20",1
"21/07/21","21:30",0.0,25.9,67.6,1008.1,307.2,0.7,1.1,301.7,0.00,19.5,27.6,"21:20:24",1
"21/07/21","21:40",0.0,25.6,68.2,1007.8,309.5,0.7,1.4,337.8,0.00,19.3,27.5,"21:32:40",1
"21/07/21","21:50",0.0,25.5,68.7,1008.1,315.9,0.8,1.8,24.9,0.00,19.4,27.5,"21:49:20",1
"21/07/21","22:00",0.0,25.5,69.1,1008.1,330.3,0.8,1.7,322.5,0.00,19.5,27.5,"21:56:32",1
"21/07/21","22:10",0.0,25.2,69.6,1008.3,299.4,0.5,1.0,312.6,0.00,19.3,27.2,"22:01:12",1
"21/07/21","22:20",0.0,24.9,70.6,1008.1,331.1,0.7,1.1,337.7,0.00,19.2,27.2,"22:10:56",1
"21/07/21","22:30",0.0,24.7,72.3,1008.3,312.0,0.6,0.8,313.7,0.00,19.4,27.3,"22:21:28",1
"21/07/21","22:40",0.0,24.4,74.0,1008.3,339.5,0.7,1.3,330.0,0.00,19.5,27.3,"22:30:48",1
"21/07/21","22:50",0.0,24.2,75.4,1008.6,318.1,0.7,1.1,337.6,0.00,19.6,27.2,"22:40:08",1
"21/07/21","23:00",0.0,24.0,77.0,1008.1,340.6,0.7,1.2,322.4,0.00,19.8,27.0,"22:52:32",1
"21/07/21","23:10",0.0,23.7,77.8,1008.1,311.8,0.6,1.0,318.2,0.00,19.6,26.9,"23:01:36",1
"21/07/21","23:20",0.0,23.4,78.6,1008.6,303.8,0.6,0.9,334.8,0.00,19.5,26.8,"23:16:16",1
"21/07/21","23:30",0.0,23.5,78.7,1008.6,338.9,1.0,1.7,334.6,0.00,19.6,26.9,"23:29:28",1
"21/07/21","23:40",0.0,23.8,78.1,1008.6,329.0,0.8,1.7,327.3,0.00,19.8,27.0,"23:37:20",1
"21/07/21","23:50",0.0,23.9,77.3,1008.3,330.6,1.5,2.1,315.5,0.00,19.7,26.9,"23:43:52",1
"21/07/21","24:00",0.0,24.0,76.5,1008.8,293.9,1.1,1.8,305.9,0.00,19.7,26.8,"23:57:36",1
